Home > Weather > Verona > Past weeks

Flag for Italy Past Weather in Verona, Italy — Yesterday and Last 2 Weeks

Now
86 °F

Passing clouds.


Feels Like: 88 °F
Forecast: 67 / 86 °F
Wind: 8 mph from Southwest

Location: Verona / Villafranca

Current Time: Jul 27, 2016 at 5:27:36 PM

Latest Report: Jul 27, 2016 at 4:50 PM


Visibility: N/A

Pressure: 29.92 "Hg

Humidity: 52%

Dew Point: 66 °F

Location of VeronaLocation

Past Weather in Verona — Graph

°F

Verona Temperature Yesterday

Maximum temperature yesterday: 88 °F (at 12:50 PM)
Minimum temperature yesterday: 72 °F (at 5:20 AM)
Average temperature yesterday: 80 °F

High & Low Weather Summary for the Past Weeks

 TemperatureHumidityPressure
High91 °F (Jul 12, 3:20 PM)94% (Jul 13, 5:50 AM)30.12 "Hg (Jul 13, 5:50 AM)
Low54 °F (Jul 16, 4:20 AM)21% (Jul 14, 5:20 PM)29.65 "Hg (Jul 13, 6:50 PM)
Average77 °F59%29.98 "Hg
* Reported Jul 12 3:20 PM — Jul 27 3:50 PM, Verona, Weather by CustomWeather, © 2016

Note: Actual official high and low records may vary slightly from our data, if they occured in-between our weather recording intervals... More about our weather records

Advertising

Verona Weather History for the Previous 24 Hours

Scroll right to see more
 ConditionsComfort  
Time TempWeatherWind HumidityBarometerVisibility
3:50 PM
Wed, Jul 27
86 °FPassing clouds.7 mph52%29.92 "HgN/A
3:20 PM86 °FPassing clouds.5 mph55%29.92 "HgN/A
2:50 PM86 °FPassing clouds.6 mph52%29.92 "HgN/A
2:20 PM88 °FPassing clouds.7 mph46%29.92 "HgN/A
1:50 PM88 °FPassing clouds.5 mph49%29.95 "HgN/A
1:20 PM88 °FPassing clouds.5 mph49%29.95 "HgN/A
12:50 PM86 °FPassing clouds.6 mph52%29.98 "HgN/A
12:20 PM86 °FPassing clouds.5 mph52%29.98 "HgN/A
11:50 AM86 °FPassing clouds.5 mph52%29.98 "HgN/A
11:20 AM82 °FScattered clouds.3 mph58%29.98 "HgN/A
10:50 AM79 °FScattered clouds.2 mph65%29.98 "HgN/A
10:20 AM82 °FLight rain. Partly sunny.2 mph55%30.01 "HgN/A
9:50 AM84 °FScattered clouds.2 mph51%29.98 "HgN/A
9:20 AM82 °FScattered clouds.2 mph55%29.98 "HgN/A
8:50 AM81 °FScattered clouds.2 mph58%29.98 "HgN/A
8:20 AM79 °FPassing clouds.2 mph61%29.98 "HgN/A
7:50 AM77 °FScattered clouds.3 mph65%29.98 "HgN/A
7:20 AM73 °FScattered clouds.2 mph74%29.98 "HgN/A
6:50 AM73 °FPassing clouds.3 mph74%29.98 "HgN/A
6:20 AM72 °FPassing clouds.2 mph78%29.98 "HgN/A
5:50 AM72 °FPassing clouds.2 mph78%29.98 "HgN/A
5:20 AM70 °FPassing clouds.1 mph83%29.98 "HgN/A
4:50 AM70 °FPassing clouds.3 mph83%29.98 "HgN/A
4:20 AM70 °FPassing clouds.3 mph83%29.98 "HgN/A
3:50 AM68 °FPassing clouds.2 mph88%29.98 "HgN/A
3:20 AM68 °FPassing clouds.3 mph88%29.98 "HgN/A
2:50 AM70 °FPassing clouds.1 mph83%29.98 "HgN/A
2:20 AM72 °FPassing clouds.1 mph78%29.98 "HgN/A
1:50 AM70 °FPassing clouds.1 mph83%29.98 "HgN/A
1:20 AM72 °FPassing clouds.2 mph83%29.98 "HgN/A
12:50 AM72 °FPassing clouds.2 mph83%29.98 "HgN/A
12:20 AM73 °FPassing clouds.2 mph78%29.98 "HgN/A
11:50 PM
Tue, Jul 26
72 °FPassing clouds.2 mph83%29.98 "HgN/A
11:20 PM73 °FPassing clouds.6 mph78%29.98 "HgN/A
10:50 PM75 °FPassing clouds.6 mph74%29.98 "HgN/A
10:20 PM75 °FPassing clouds.1 mph74%29.98 "HgN/A
9:50 PM77 °FPassing clouds.6 mph69%29.98 "HgN/A
9:20 PM79 °FPassing clouds.5 mph65%29.98 "HgN/A
8:50 PM79 °FPassing clouds.3 mph65%29.95 "HgN/A
8:20 PM82 °FPassing clouds.3 mph58%29.95 "HgN/A
7:50 PM86 °FPassing clouds.5 mph49%29.95 "HgN/A
7:20 PM86 °FSunny.6 mph49%29.95 "Hg10 mi
6:50 PM86 °FPassing clouds.7 mph55%29.95 "HgN/A
6:20 PM86 °FPassing clouds.7 mph52%29.95 "HgN/A
5:50 PM86 °FPassing clouds.7 mph52%29.95 "HgN/A
5:20 PM86 °FScattered clouds.9 mph49%29.95 "HgN/A
Weather by CustomWeather, © 2016

See weather overviewHow to use our weather pages